N1PLV Weather Reports


Display with metric or nautical units.
time (UTC)temp
F
wind
direction
speed
MPH
gust
MPH
rain 1hr
in
rain 24hr
in
rain mn
in
humidity
%
barometer
mb
20240622052804 79 360 6.0 11.0 0.00 0.00 0.00 87 1022.2
20240622051304 79 206 5.0 12.0 0.00 0.00 0.00 87 1022.3
20240622045803 78 233 6.0 13.0 0.00 0.00 0.00 88 1022.3
20240622044303 78 136 4.0 10.0 0.00 0.00 0.00 88 1022.3
20240622042803 77 166 3.0 9.0 0.00 0.00 0.00 88 1022.2
20240622041303 77 155 4.0 10.0 0.00 0.00 0.00 87 1022.3
20240622035804 78 162 5.0 9.0 0.00 0.00 0.00 87 1022.4
20240622031303 78 137 3.0 9.0 0.00 0.00 0.00 86 1022.5
20240622025805 78 141 4.0 8.0 0.00 0.00 0.00 86 1022.5
20240622024304 78 148 4.0 8.0 0.00 0.00 0.00 85 1022.5
20240622022803 78 138 5.0 9.0 0.00 0.00 0.00 85 1022.6
20240622021303 78 169 5.0 10.0 0.00 0.00 0.00 84 1022.6
20240622015804 78 150 5.0 11.0 0.00 0.00 0.00 84 1022.4
20240622014303 78 164 5.0 12.0 0.00 0.00 0.00 84 1022.5
20240622012803 78 150 6.0 13.0 0.00 0.00 0.00 84 1022.5
20240622011304 79 152 8.0 13.0 0.00 0.00 0.00 84 1022.3
20240622005803 79 140 5.0 11.0 0.00 0.00 0.00 83 1022.3
20240622002803 78 125 7.0 14.0 0.00 0.00 0.00 83 1022.3
20240622001303 78 191 7.0 12.0 0.00 0.00 0.00 83 1022.1
20240621234303 -43 145 0.0 0.0 0.00 0.00 0.00 1022.2
20240621232803 -43 134 0.0 0.0 0.00 0.00 0.00 1022.2
20240621231303 -43 125 0.0 0.0 0.00 0.00 0.00 1022.3
20240621225803 -43 128 0.0 0.0 0.00 0.00 0.00 1022.3
20240621222803 -42 129 0.0 0.0 0.00 0.00 0.00 1022.1
20240621221303 -42 126 0.0 0.0 0.00 0.00 0.00 1022.2
20240621215803 -42 121 0.0 0.0 0.00 0.00 0.00 1022.4
20240621214303 -42 112 0.0 0.0 0.00 0.00 0.00 1022.5
20240621212803 -42 113 0.0 0.0 0.00 0.00 0.00 1022.5
20240621211304 -42 115 0.0 0.0 0.00 0.00 0.00 1022.6
20240621205803 -41 104 0.0 0.0 0.00 0.00 0.00 1022.6
20240621204303 -41 117 0.0 0.0 0.00 0.00 0.00 1022.7
20240621202803 -40 117 0.0 0.0 0.00 0.00 0.00 1022.8
20240621192803 -41 107 0.0 0.0 0.00 0.00 0.00 1023.3
20240621191303 -40 111 0.0 0.0 0.00 0.00 0.00 1023.8
20240621185803 -40 102 0.0 0.0 0.00 0.00 0.00 1023.9
20240621184303 -40 103 0.0 0.0 0.00 0.00 0.00 1024.2
20240621182803 -40 102 0.0 0.0 0.00 0.00 0.00 1024.3
20240621181302 -40 94 0.0 0.0 0.00 0.00 0.00 1024.5
20240621175803 -39 94 0.0 0.0 0.00 0.00 0.00 1024.6
20240621174303 -39 91 0.0 0.0 0.00 0.00 0.00 1024.8
20240621172802 -39 105 0.0 0.0 0.00 0.00 0.00 1025.0
20240621171301 -38 86 0.0 0.0 0.00 0.00 0.00 1025.1
20240621165803 -38 85 0.0 0.0 0.00 0.00 0.00 1025.0
20240621164302 -37 90 0.0 0.0 0.00 0.00 0.00 1025.2
20240621162802 -37 90 0.0 0.0 0.00 0.00 0.00 1025.0
20240621161301 -37 94 0.0 0.0 0.00 0.00 0.00 1025.1
20240621155803 -37 97 0.0 0.0 0.00 0.00 0.00 1025.2
20240621154302 -36 98 0.0 0.0 0.00 0.00 0.00 1025.2
20240621151302 -35 96 0.0 0.0 0.00 0.00 0.00 1025.3
20240621145802 -35 96 0.0 0.0 0.00 0.00 0.00 1025.3
20240621144302 -34 107 0.0 0.0 0.00 0.00 0.00 1025.4
20240621142802 -34 130 0.0 0.0 0.00 0.00 0.00 1025.4
20240621141301 -34 139 0.0 0.0 0.00 0.00 0.00 1025.4
20240621135802 -35 162 0.0 0.0 0.00 0.00 0.00 1025.3
20240621134302 -36 188 0.0 0.0 0.00 0.00 0.00 1025.3
20240621124302 -36 188 0.0 0.0 0.00 0.00 0.00 1025.2
20240621122802 -36 188 0.0 0.0 0.00 0.00 0.00 1025.1
20240621121302 -36 188 0.0 0.0 0.00 0.00 0.00 1025.3
20240621115802 -36 188 0.0 0.0 0.00 0.00 0.00 1025.3
20240621114302 -36 188 0.0 0.0 0.00 0.00 0.00 1025.3
20240621112802 75 160 0.0 0.0 0.00 0.00 0.00 82 1025.1
20240621111302 75 164 0.0 2.0 0.00 0.00 0.00 83 1025.1
20240621104302 74 163 1.0 3.0 0.00 0.00 0.00 83 1024.9
20240621102802 73 161 2.0 5.0 0.00 0.00 0.00 83 1024.8
20240621095803 73 161 2.0 3.0 0.00 0.00 0.00 83 1025.0
20240621094302 73 156 3.0 6.0 0.00 0.00 0.00 83 1024.9
20240621091301 74 148 4.0 7.0 0.00 0.00 0.00 83 1024.7
20240621085802 74 155 3.0 6.0 0.00 0.00 0.00 83 1024.6
20240621084301 74 164 4.0 7.0 0.00 0.00 0.00 83 1024.7
20240621082802 74 159 3.0 6.0 0.00 0.00 0.00 83 1024.8
20240621081303 74 152 3.0 7.0 0.00 0.00 0.00 83 1025.0
20240621074302 74 156 3.0 7.0 0.00 0.00 0.00 83 1024.9
20240621072802 74 169 3.0 6.0 0.00 0.00 0.00 83 1025.0
20240621071302 75 159 3.0 5.0 0.00 0.00 0.00 84 1025.0
20240621064302 75 158 3.0 6.0 0.00 0.00 0.00 84 1025.1
20240621062802 76 136 4.0 9.0 0.00 0.00 0.00 84 1025.3
20240621061302 75 146 4.0 8.0 0.00 0.00 0.00 84 1025.5
20240621055802 76 139 6.0 11.0 0.00 0.00 0.00 85 1025.6